Terminal Aerodrome Forecast
Issued by NWS

Home | Current Version | Previous Version | Graphics & Text | Print | Product List | Glossary On
Versions: 1 2 3 4 5 6 7 8 9 10 11 12 13 14 15 16 17 18
000
FTUS43 KTOP 261300 AAA
TAFMHK
TAF AMD
KMHK 261313Z 2613/2712 28011KT P6SM SCT080
     FM261600 32014G27KT P6SM BKN040
      TEMPO 2617/2619 P6SM BKN030
     FM261900 33011G21KT P6SM SCT040
     FM270000 36004KT P6SM SKC=

USA.gov is the U.S. government's official web portal to all federal, state and local government web resources and services.